| time (UTC) | temp F | wind direction | speed MPH | gust MPH | rain 1hr in | rain 24hr in | rain mn in | humidity % | barometer mb |
| 20260510122703 | 60 | 207 | 4.0 | 9.0 | 0.00 | 0.00 | 0.00 | 63 | 1010.0 |
| 20260510121803 | 60 | 198 | 6.0 | 13.0 | 0.00 | 0.00 | 0.00 | 61 | 1010.0 |
| 20260510120903 | 61 | 198 | 7.0 | 14.0 | 0.00 | 0.00 | 0.00 | 62 | 1010.0 |
| 20260510120003 | 61 | 212 | 7.0 | 14.0 | 0.00 | 0.00 | 0.00 | 62 | 1010.0 |
| 20260510115618 | 62 | 212 | 7.0 | 14.0 | 0.00 | 0.00 | 0.00 | 62 | 1010.1 |
| 20260510114503 | 62 | 232 | 8.0 | 15.0 | 0.00 | 0.00 | 0.00 | 65 | 1010.1 |
| 20260510113816 | 62 | 214 | 8.0 | 15.0 | 0.00 | 0.00 | 0.00 | 66 | 1010.1 |
| 20260510112918 | 63 | 217 | 7.0 | 14.0 | 0.00 | 0.00 | 0.00 | 64 | 1010.2 |
| 20260510111803 | 63 | 212 | 6.0 | 13.0 | 0.00 | 0.00 | 0.00 | 67 | 1010.2 |
| 20260510110903 | 64 | 224 | 7.0 | 16.0 | 0.00 | 0.00 | 0.00 | 67 | 1010.3 |
| 20260510110003 | 65 | 257 | 5.0 | 9.0 | 0.00 | 0.00 | 0.00 | 68 | 1010.3 |
| 20260510105403 | 64 | 251 | 6.0 | 14.0 | 0.00 | 0.00 | 0.00 | 69 | 1010.3 |
| 20260510104503 | 62 | 224 | 7.0 | 15.0 | 0.00 | 0.00 | 0.00 | 67 | 1010.4 |
| 20260510103603 | 62 | 221 | 7.0 | 14.0 | 0.00 | 0.00 | 0.00 | 66 | 1010.4 |
| 20260510102703 | 63 | 215 | 7.0 | 13.0 | 0.00 | 0.00 | 0.00 | 65 | 1010.4 |
| 20260510101803 | 63 | 236 | 7.0 | 13.0 | 0.00 | 0.00 | 0.00 | 67 | 1010.5 |
| 20260510100903 | 62 | 246 | 6.0 | 13.0 | 0.00 | 0.00 | 0.00 | 69 | 1010.4 |
| 20260510100004 | 61 | 220 | 6.0 | 13.0 | 0.00 | 0.00 | 0.00 | 70 | 1010.4 |
| 20260510095403 | 61 | 217 | 6.0 | 10.0 | 0.00 | 0.00 | 0.00 | 69 | 1010.5 |
| 20260510094503 | 61 | 235 | 4.0 | 9.0 | 0.00 | 0.00 | 0.00 | 70 | 1010.5 |
| 20260510093818 | 61 | 262 | 4.0 | 8.0 | 0.00 | 0.00 | 0.00 | 71 | 1010.5 |
| 20260510092703 | 62 | 262 | 2.0 | 5.0 | 0.00 | 0.00 | 0.00 | 71 | 1010.5 |
| 20260510092018 | 62 | 274 | 2.0 | 7.0 | 0.00 | 0.00 | 0.00 | 71 | 1010.4 |
| 20260510090903 | 61 | 265 | 2.0 | 6.0 | 0.00 | 0.00 | 0.00 | 71 | 1010.5 |
| 20260510090003 | 60 | 264 | 2.0 | 7.0 | 0.00 | 0.00 | 0.00 | 73 | 1010.5 |
| 20260510085403 | 61 | 262 | 2.0 | 8.0 | 0.00 | 0.00 | 0.00 | 73 | 1010.4 |
| 20260510084503 | 61 | 270 | 2.0 | 8.0 | 0.00 | 0.00 | 0.00 | 72 | 1010.4 |
| 20260510083603 | 61 | 269 | 2.0 | 6.0 | 0.00 | 0.00 | 0.00 | 72 | 1010.5 |
| 20260510082703 | 60 | 253 | 3.0 | 7.0 | 0.00 | 0.00 | 0.00 | 72 | 1010.8 |
| 20260510081803 | 60 | 264 | 3.0 | 6.0 | 0.00 | 0.00 | 0.00 | 71 | 1010.9 |
| 20260510080903 | 61 | 271 | 1.0 | 4.0 | 0.00 | 0.00 | 0.00 | 72 | 1010.8 |
| 20260510080219 | 60 | 264 | 2.0 | 4.0 | 0.00 | 0.00 | 0.00 | 74 | 1010.6 |
| 20260510075403 | 60 | 261 | 2.0 | 5.0 | 0.00 | 0.00 | 0.00 | 74 | 1010.5 |
| 20260510074503 | 60 | 251 | 2.0 | 5.0 | 0.00 | 0.00 | 0.00 | 73 | 1010.4 |
| 20260510073603 | 60 | 255 | 3.0 | 5.0 | 0.00 | 0.00 | 0.00 | 72 | 1010.4 |
| 20260510072703 | 60 | 184 | 2.0 | 4.0 | 0.00 | 0.00 | 0.00 | 72 | 1010.4 |
| 20260510071803 | 59 | 152 | 2.0 | 3.0 | 0.00 | 0.00 | 0.00 | 69 | 1010.4 |
| 20260510070903 | 59 | 95 | 2.0 | 4.0 | 0.00 | 0.00 | 0.00 | 71 | 1010.3 |
| 20260510070004 | 59 | 82 | 0.0 | 3.0 | 0.00 | 0.00 | 0.00 | 74 | 1010.5 |
| 20260510065403 | 58 | 119 | 0.0 | 2.0 | 0.00 | 0.00 | 0.00 | 74 | 1010.5 |
| 20260510064503 | 57 | 84 | 0.0 | 4.0 | 0.00 | 0.00 | 0.00 | 74 | 1010.8 |
| 20260510063603 | 57 | 0 | 0.0 | 0.0 | 0.00 | 0.00 | 0.00 | 74 | 1010.8 |
| 20260510062918 | 57 | 240 | 1.0 | 2.0 | 0.00 | 0.00 | 0.00 | 74 | 1010.8 |
| 20260510061803 | 57 | 224 | 0.0 | 1.0 | 0.00 | 0.00 | 0.00 | 74 | 1010.8 |
| 20260510060903 | 57 | 62 | 0.0 | 2.0 | 0.00 | 0.00 | 0.00 | 73 | 1010.8 |
| 20260510060003 | 57 | 61 | 0.0 | 2.0 | 0.00 | 0.00 | 0.00 | 73 | 1010.9 |
| 20260510055403 | 56 | 297 | 0.0 | 2.0 | 0.00 | 0.00 | 0.00 | 74 | 1010.9 |
| 20260510054503 | 56 | 67 | 1.0 | 4.0 | 0.00 | 0.00 | 0.00 | 73 | 1011.1 |
| 20260510053603 | 56 | 81 | 4.0 | 10.0 | 0.00 | 0.00 | 0.00 | 73 | 1010.8 |
| 20260510052703 | 55 | 81 | 6.0 | 11.0 | 0.00 | 0.00 | 0.00 | 74 | 1010.8 |
| 20260510051803 | 55 | 72 | 7.0 | 15.0 | 0.00 | 0.00 | 0.00 | 74 | 1010.8 |
| 20260510050903 | 54 | 75 | 7.0 | 15.0 | 0.00 | 0.00 | 0.00 | 75 | 1010.8 |
| 20260510050003 | 54 | 77 | 8.0 | 14.0 | 0.00 | 0.00 | 0.00 | 75 | 1010.8 |
| 20260510045403 | 54 | 75 | 8.0 | 15.0 | 0.00 | 0.00 | 0.00 | 76 | 1011.0 |
| 20260510044503 | 53 | 70 | 8.0 | 13.0 | 0.00 | 0.00 | 0.00 | 76 | 1010.8 |
| 20260510043603 | 53 | 76 | 8.0 | 13.0 | 0.00 | 0.00 | 0.00 | 76 | 1011.1 |
| 20260510042703 | 53 | 71 | 8.0 | 16.0 | 0.00 | 0.00 | 0.00 | 76 | 1010.9 |
| 20260510041804 | 53 | 74 | 9.0 | 16.0 | 0.00 | 0.00 | 0.00 | 76 | 1010.8 |
| 20260510040903 | 53 | 71 | 9.0 | 16.0 | 0.00 | 0.00 | 0.00 | 76 | 1011.0 |
| 20260510040003 | 53 | 74 | 10.0 | 18.0 | 0.00 | 0.00 | 0.00 | 77 | 1011.1 |
| 20260510035403 | 53 | 73 | 11.0 | 19.0 | 0.00 | 0.00 | 0.00 | 76 | 1011.0 |
| 20260510034503 | 53 | 75 | 9.0 | 15.0 | 0.00 | 0.00 | 0.00 | 77 | 1011.1 |
| 20260510033603 | 53 | 71 | 8.0 | 16.0 | 0.00 | 0.00 | 0.00 | 77 | 1011.2 |
| 20260510032703 | 53 | 76 | 8.0 | 15.0 | 0.00 | 0.00 | 0.00 | 77 | 1011.3 |
| 20260510031803 | 53 | 72 | 8.0 | 16.0 | 0.00 | 0.00 | 0.00 | 77 | 1011.3 |
| 20260510030903 | 53 | 64 | 7.0 | 16.0 | 0.00 | 0.00 | 0.00 | 77 | 1011.4 |
| 20260510030003 | 53 | 66 | 6.0 | 13.0 | 0.00 | 0.00 | 0.00 | 77 | 1011.4 |
| 20260510025403 | 53 | 67 | 7.0 | 15.0 | 0.00 | 0.00 | 0.00 | 77 | 1011.4 |
| 20260510024503 | 53 | 72 | 9.0 | 15.0 | 0.00 | 0.00 | 0.00 | 77 | 1011.5 |
| 20260510023603 | 53 | 72 | 8.0 | 16.0 | 0.00 | 0.00 | 0.00 | 76 | 1011.4 |
| 20260510022703 | 53 | 75 | 9.0 | 16.0 | 0.00 | 0.00 | 0.00 | 76 | 1011.5 |
| 20260510021803 | 53 | 75 | 9.0 | 16.0 | 0.00 | 0.00 | 0.00 | 76 | 1011.4 |
| 20260510020903 | 53 | 69 | 11.0 | 19.0 | 0.00 | 0.00 | 0.00 | 76 | 1011.4 |
| 20260510020003 | 53 | 72 | 12.0 | 18.0 | 0.00 | 0.00 | 0.00 | 77 | 1011.4 |
| 20260510015403 | 53 | 76 | 12.0 | 19.0 | 0.00 | 0.00 | 0.00 | 77 | 1011.5 |
| 20260510014503 | 53 | 76 | 11.0 | 19.0 | 0.00 | 0.00 | 0.00 | 77 | 1011.5 |
| 20260510013603 | 53 | 73 | 12.0 | 19.0 | 0.00 | 0.00 | 0.00 | 76 | 1011.5 |
| 20260510012703 | 53 | 74 | 12.0 | 19.0 | 0.00 | 0.00 | 0.00 | 76 | 1011.5 |
| 20260510011803 | 54 | 73 | 13.0 | 20.0 | 0.00 | 0.00 | 0.00 | 76 | 1011.5 |
| 20260510010903 | 53 | 71 | 11.0 | 19.0 | 0.00 | 0.00 | 0.00 | 77 | 1011.5 |
| 20260510010218 | 53 | 73 | 9.0 | 19.0 | 0.00 | 0.00 | 0.00 | 77 | 1011.6 |
| 20260510005403 | 53 | 72 | 10.0 | 21.0 | 0.00 | 0.00 | 0.00 | 77 | 1011.6 |
| 20260510004717 | 53 | 73 | 10.0 | 18.0 | 0.00 | 0.00 | 0.00 | 77 | 1011.8 |
| 20260510003603 | 53 | 75 | 9.0 | 17.0 | 0.00 | 0.00 | 0.00 | 77 | 1012.1 |
| 20260510002703 | 53 | 74 | 10.0 | 16.0 | 0.00 | 0.00 | 0.00 | 77 | 1011.9 |
| 20260510001803 | 53 | 68 | 10.0 | 20.0 | 0.00 | 0.00 | 0.00 | 77 | 1011.9 |
| 20260510000903 | 53 | 78 | 10.0 | 19.0 | 0.00 | 0.00 | 0.00 | 77 | 1011.8 |
| 20260510000219 | 53 | 76 | 11.0 | 21.0 | 0.00 | 0.00 | 0.00 | 77 | 1011.7 |
| 20260509235403 | 54 | 74 | 12.0 | 18.0 | 0.00 | 0.00 | 0.00 | 77 | 1011.8 |
| 20260509234717 | 54 | 70 | 12.0 | 18.0 | 0.00 | 0.00 | 0.00 | 76 | 1011.9 |
| 20260509233818 | 54 | 74 | 12.0 | 21.0 | 0.00 | 0.00 | 0.00 | 76 | 1011.9 |
| 20260509232703 | 54 | 73 | 12.0 | 20.0 | 0.00 | 0.00 | 0.00 | 76 | 1012.1 |
| 20260509231803 | 54 | 78 | 14.0 | 21.0 | 0.00 | 0.00 | 0.00 | 76 | 1012.2 |
| 20260509230903 | 54 | 76 | 13.0 | 21.0 | 0.00 | 0.00 | 0.00 | 76 | 1012.1 |
| 20260509230004 | 54 | 76 | 12.0 | 19.0 | 0.00 | 0.00 | 0.00 | 75 | 1012.4 |
| 20260509225403 | 54 | 84 | 13.0 | 21.0 | 0.00 | 0.00 | 0.00 | 74 | 1012.4 |
| 20260509224503 | 55 | 87 | 12.0 | 23.0 | 0.00 | 0.00 | 0.00 | 74 | 1012.5 |
| 20260509223603 | 55 | 84 | 14.0 | 20.0 | 0.00 | 0.00 | 0.00 | 74 | 1012.4 |
| 20260509222703 | 55 | 81 | 13.0 | 20.0 | 0.00 | 0.00 | 0.00 | 74 | 1012.3 |
| 20260509221803 | 56 | 82 | 13.0 | 19.0 | 0.00 | 0.00 | 0.00 | 73 | 1012.3 |
| 20260509220903 | 56 | 82 | 11.0 | 16.0 | 0.00 | 0.00 | 0.00 | 73 | 1012.5 |
| 20260509220219 | 56 | 80 | 11.0 | 18.0 | 0.00 | 0.00 | 0.00 | 74 | 1012.5 |
| 20260509215403 | 55 | 79 | 10.0 | 18.0 | 0.00 | 0.00 | 0.00 | 74 | 1012.5 |
| 20260509214503 | 54 | 62 | 4.0 | 13.0 | 0.00 | 0.00 | 0.00 | 75 | 1012.5 |
| 20260509213603 | 55 | 93 | 1.0 | 3.0 | 0.00 | 0.00 | 0.00 | 75 | 1012.5 |
| 20260509212703 | 56 | 47 | 1.0 | 3.0 | 0.00 | 0.00 | 0.00 | 75 | 1012.6 |
| 20260509211803 | 55 | 42 | 2.0 | 2.0 | 0.00 | 0.00 | 0.00 | 75 | 1012.5 |
| 20260509211117 | 55 | 43 | 2.0 | 2.0 | 0.00 | 0.00 | 0.00 | 73 | 1012.5 |
| 20260509210003 | 55 | 49 | 2.0 | 3.0 | 0.00 | 0.00 | 0.00 | 72 | 1012.7 |
| 20260509205403 | 55 | 48 | 2.0 | 2.0 | 0.00 | 0.00 | 0.00 | 71 | 1012.6 |
| 20260509204717 | 55 | 51 | 2.0 | 2.0 | 0.00 | 0.00 | 0.00 | 71 | 1012.8 |
| 20260509203603 | 55 | 52 | 3.0 | 4.0 | 0.00 | 0.00 | 0.00 | 70 | 1012.7 |
| 20260509202916 | 55 | 56 | 2.0 | 3.0 | 0.00 | 0.00 | 0.00 | 70 | 1012.6 |
| 20260509201803 | 55 | 40 | 3.0 | 4.0 | 0.00 | 0.00 | 0.00 | 70 | 1012.5 |
| 20260509200903 | 55 | 57 | 2.0 | 3.0 | 0.00 | 0.00 | 0.00 | 69 | 1012.6 |
| 20260509200003 | 55 | 31 | 3.0 | 4.0 | 0.00 | 0.00 | 0.00 | 69 | 1012.5 |
| 20260509195403 | 55 | 33 | 3.0 | 4.0 | 0.00 | 0.00 | 0.00 | 70 | 1012.6 |
| 20260509194503 | 55 | 46 | 3.0 | 4.0 | 0.00 | 0.00 | 0.00 | 70 | 1012.5 |
| 20260509193603 | 55 | 44 | 3.0 | 4.0 | 0.00 | 0.00 | 0.00 | 70 | 1012.5 |
| 20260509192703 | 55 | 75 | 2.0 | 3.0 | 0.00 | 0.00 | 0.00 | 70 | 1012.7 |
| 20260509191803 | 55 | 76 | 2.0 | 3.0 | 0.00 | 0.00 | 0.00 | 70 | 1012.6 |
| 20260509190903 | 56 | 66 | 2.0 | 3.0 | 0.00 | 0.00 | 0.00 | 70 | 1012.8 |
| 20260509190003 | 56 | 61 | 2.0 | 3.0 | 0.00 | 0.00 | 0.00 | 69 | 1012.7 |
| 20260509185403 | 56 | 58 | 2.0 | 3.0 | 0.00 | 0.00 | 0.00 | 69 | 1012.6 |
| 20260509184503 | 56 | 112 | 1.0 | 3.0 | 0.00 | 0.00 | 0.00 | 68 | 1012.6 |
| 20260509183603 | 57 | 139 | 1.0 | 3.0 | 0.00 | 0.00 | 0.00 | 67 | 1012.5 |
| 20260509182917 | 58 | 233 | 0.0 | 2.0 | 0.00 | 0.00 | 0.00 | 66 | 1012.5 |
| 20260509181804 | 59 | 279 | 0.0 | 2.0 | 0.00 | 0.00 | 0.00 | 65 | 1012.4 |
| 20260509180903 | 59 | 96 | 0.0 | 3.0 | 0.00 | 0.00 | 0.00 | 64 | 1012.4 |
| 20260509180004 | 60 | 183 | 1.0 | 5.0 | 0.00 | 0.00 | 0.00 | 63 | 1012.4 |
| 20260509175617 | 60 | 191 | 2.0 | 5.0 | 0.00 | 0.00 | 0.00 | 62 | 1012.4 |
| 20260509174503 | 61 | 206 | 3.0 | 8.0 | 0.00 | 0.00 | 0.00 | 62 | 1012.4 |
| 20260509173818 | 62 | 209 | 4.0 | 10.0 | 0.00 | 0.00 | 0.00 | 61 | 1012.2 |
| 20260509172703 | 63 | 217 | 4.0 | 7.0 | 0.00 | 0.00 | 0.00 | 62 | 1012.1 |
| 20260509171803 | 63 | 216 | 4.0 | 7.0 | 0.00 | 0.00 | 0.00 | 61 | 1012.1 |
| 20260509170903 | 64 | 238 | 3.0 | 7.0 | 0.00 | 0.00 | 0.00 | 60 | 1011.8 |
| 20260509170003 | 65 | 258 | 4.0 | 9.0 | 0.00 | 0.00 | 0.00 | 59 | 1011.8 |
| 20260509165403 | 65 | 251 | 4.0 | 10.0 | 0.00 | 0.00 | 0.00 | 59 | 1011.9 |
| 20260509164503 | 65 | 242 | 5.0 | 10.0 | 0.00 | 0.00 | 0.00 | 60 | 1011.9 |
| 20260509163603 | 65 | 240 | 6.0 | 15.0 | 0.00 | 0.00 | 0.00 | 60 | 1011.7 |
| 20260509162703 | 66 | 240 | 4.0 | 15.0 | 0.00 | 0.00 | 0.00 | 60 | 1011.7 |
| 20260509161803 | 65 | 221 | 6.0 | 12.0 | 0.00 | 0.00 | 0.00 | 60 | 1011.8 |
| 20260509160903 | 66 | 211 | 6.0 | 11.0 | 0.00 | 0.00 | 0.00 | 59 | 1011.8 |
| 20260509160003 | 66 | 223 | 6.0 | 11.0 | 0.00 | 0.00 | 0.00 | 59 | 1011.8 |
| 20260509155403 | 66 | 215 | 6.0 | 12.0 | 0.00 | 0.00 | 0.00 | 57 | 1011.8 |
| 20260509154503 | 68 | 249 | 4.0 | 11.0 | 0.00 | 0.00 | 0.00 | 55 | 1012.3 |
| 20260509153603 | 67 | 250 | 5.0 | 13.0 | 0.00 | 0.00 | 0.00 | 57 | 1012.2 |
| 20260509152703 | 67 | 257 | 8.0 | 14.0 | 0.00 | 0.00 | 0.00 | 57 | 1012.2 |
| 20260509151803 | 67 | 237 | 5.0 | 12.0 | 0.00 | 0.00 | 0.00 | 57 | 1012.4 |
| 20260509150903 | 66 | 254 | 6.0 | 13.0 | 0.00 | 0.00 | 0.00 | 55 | 1012.4 |
| 20260509150003 | 67 | 223 | 5.0 | 13.0 | 0.00 | 0.00 | 0.00 | 53 | 1012.2 |
| 20260509145403 | 67 | 237 | 5.0 | 13.0 | 0.00 | 0.00 | 0.00 | 51 | 1012.3 |
| 20260509144503 | 67 | 210 | 6.0 | 13.0 | 0.00 | 0.00 | 0.00 | 52 | 1012.2 |
| 20260509143603 | 67 | 229 | 7.0 | 14.0 | 0.00 | 0.00 | 0.00 | 53 | 1012.3 |
| 20260509142703 | 67 | 233 | 7.0 | 16.0 | 0.00 | 0.00 | 0.00 | 53 | 1012.3 |
| 20260509141803 | 67 | 229 | 6.0 | 14.0 | 0.00 | 0.00 | 0.00 | 51 | 1012.2 |
| 20260509140903 | 67 | 218 | 7.0 | 13.0 | 0.00 | 0.00 | 0.00 | 51 | 1012.2 |
| 20260509140005 | 68 | 230 | 7.0 | 13.0 | 0.00 | 0.00 | 0.00 | 51 | 1012.1 |
| 20260509135618 | 68 | 240 | 7.0 | 14.0 | 0.00 | 0.00 | 0.00 | 53 | 1012.1 |
| 20260509134717 | 68 | 238 | 7.0 | 14.0 | 0.00 | 0.00 | 0.00 | 52 | 1011.9 |
| 20260509133603 | 67 | 227 | 5.0 | 12.0 | 0.00 | 0.00 | 0.00 | 51 | 1011.9 |
| 20260509132703 | 67 | 218 | 6.0 | 12.0 | 0.00 | 0.00 | 0.00 | 51 | 1012.1 |
| 20260509131803 | 67 | 201 | 5.0 | 12.0 | 0.00 | 0.00 | 0.00 | 53 | 1012.2 |
| 20260509130903 | 68 | 217 | 5.0 | 13.0 | 0.00 | 0.00 | 0.00 | 52 | 1012.1 |
| 20260509130218 | 68 | 223 | 6.0 | 15.0 | 0.00 | 0.00 | 0.00 | 53 | 1012.2 |
| 20260509125403 | 68 | 206 | 5.0 | 13.0 | 0.00 | 0.00 | 0.00 | 50 | 1012.2 |
| 20260509124503 | 67 | 216 | 6.0 | 12.0 | 0.00 | 0.00 | 0.00 | 51 | 1012.2 |
| 20260509123818 | 67 | 198 | 5.0 | 11.0 | 0.00 | 0.00 | 0.00 | 52 | 1012.3 |